Location: Newark
(35.1044°N, 77.3364°W)
Time: 21:07:39
(UTC+00:00)

N. Korean satellite - Visible Passes

Search period start: 15 December 2019 00:00
Search period end: 25 December 2019 00:00
Orbit: 455 x 507 km, 97.2° (Epoch: 14 December)

Date Brightness Start Highest point End Pass type
(mag) Time Alt. Az. Time Alt. Az. Time Alt. Az.
15 Dec 7.0 10:47:53 10° NNE 10:51:20 61° E 10:54:43 10° S visible
15 Dec 9.0 22:53:23 10° SSW 22:56:35 28° W 22:59:47 10° NW visible
16 Dec 8.8 10:22:54 10° NE 10:25:50 25° E 10:28:42 10° SSE visible
16 Dec 7.2 22:27:27 10° S 22:31:07 64° W 22:34:46 10° NNW visible
17 Dec 10.0 09:59:04 10° ENE 10:00:14 11° E 10:01:24 10° ESE visible
17 Dec 7.3 11:30:40 10° NNW 11:33:42 29° WNW 11:36:41 10° SW visible
18 Dec 6.3 11:04:54 10° N 11:08:20 71° WNW 11:11:44 10° SSW visible
18 Dec 9.8 23:11:18 10° SW 23:13:43 17° W 23:16:07 10° NW visible
19 Dec 7.6 10:39:34 10° NNE 10:42:54 45° E 10:46:11 10° S visible
19 Dec 8.5 22:44:47 10° SSW 22:48:11 35° W 22:51:34 10° NNW visible
20 Dec 9.3 10:14:48 10° NE 10:17:22 19° E 10:19:54 10° SE visible
21 Dec 6.9 11:22:06 10° N 11:25:17 37° WNW 11:28:29 10° SW visible
22 Dec 6.4 10:56:28 10° NNE 10:59:55 85° E 11:03:19 10° S visible
22 Dec 9.5 23:02:29 10° SW 23:05:17 21° W 23:08:05 10° NW visible
23 Dec 8.2 10:31:18 10° NNE 10:34:27 33° E 10:37:34 10° SSE visible
23 Dec 7.9 22:36:15 10° S 22:39:46 46° W 22:43:15 10° NNW visible
24 Dec 9.7 10:06:49 10° ENE 10:08:53 15° E 10:10:56 10° SE visible
24 Dec 7.7 11:39:31 10° NNW 11:42:13 22° WNW 11:44:53 10° SW visible
